Location: Unspecified
(0.0000°N, 0.0000°E)
Time: 00:07:06
(UTC+00:00)

Hubble Space Telescope - Pass Details

Date: 19 June 2019
Orbit: 536 x 540 km, 28.5° (Epoch: 14 September)

Event Time Altitude Azimuth Distance (km) Brightness Sun altitude
Rises 20:33:37 0° 256° (WSW) 2,678 4.9 -34.4°
Reaches altitude 10° 20:36:02 10° 266° (W) 1,785 4.0 -35.0°
Enters shadow 20:36:14 11° 267° (W) 1,719 3.9 -35.0°
